Location: Caltech
(34.1382°N, 118.1253°W)
Time: 20:10:26
(UTC-07:00)

Courier 1B - Visible Passes

Search period start: 29 August 2016 00:00
Search period end: 08 September 2016 00:00
Orbit: 962 x 1209 km, 28.3° (Epoch: 29 August)

Date Brightness Start Highest point End Pass type
(mag) Time Alt. Az. Time Alt. Az. Time Alt. Az.
29 Aug 9.1 03:13:57 25° ESE 03:13:57 25° ESE 03:16:35 10° E visible
29 Aug 7.8 05:00:51 27° WSW 05:04:03 48° S 05:10:16 10° ESE visible
30 Aug 7.7 04:10:35 51° S 04:10:35 51° S 04:16:40 10° ESE visible
31 Aug 9.0 03:20:23 25° ESE 03:20:23 25° ESE 03:23:03 10° ESE visible
31 Aug 8.0 05:07:18 25° WSW 05:10:24 39° SSW 05:16:22 10° SE visible
01 Sep 7.9 04:17:10 44° S 04:17:10 44° S 04:22:54 10° ESE visible
02 Sep 9.1 03:27:06 22° ESE 03:27:06 22° ESE 03:29:24 10° ESE visible
02 Sep 8.4 05:14:01 22° WSW 05:16:41 29° SSW 05:22:07 10° SE visible
03 Sep 8.3 04:24:02 33° S 04:24:02 33° S 04:28:54 10° SE visible
04 Sep 9.4 03:34:07 17° SE 03:34:07 17° SE 03:35:33 10° SE visible
04 Sep 8.8 05:21:03 17° SW 05:22:51 19° SSW 05:27:12 10° SSE visible
04 Sep 9.5 20:50:46 10° S 20:53:14 14° SSE 20:53:14 14° SSE visible
05 Sep 8.9 04:31:11 21° S 04:31:11 21° S 04:34:24 10° SSE visible
05 Sep 9.5 19:59:07 10° SSE 20:01:10 11° SSE 20:03:12 10° SE visible
05 Sep 9.5 21:48:17 10° SW 21:50:19 18° SSW 21:50:19 18° SSW visible
06 Sep 9.3 05:28:20 10° SW 05:28:58 10° SSW 05:30:06 10° SSW visible
06 Sep 8.9 20:55:00 10° SSW 21:00:25 25° SSE 21:00:25 25° SSE visible
07 Sep 9.5 04:38:34 11° S 04:38:34 11° S 04:39:01 10° S visible
07 Sep 9.2 20:01:57 10° SSW 20:07:15 20° SSE 20:10:26 15° ESE visible
07 Sep 9.1 21:53:51 10° SW 21:57:21 26° SW 21:57:21 26° SW visible
